     2.10           OBSERVATION DATA    G (GPS)             RINEX VERSION / TYPE
teqc 2002Mar14 Lou Estey 20020315 16:12:09UTC               PGM / RUN BY / DATE
Solaris 2.7|Ultra 2|cc SC5.0|=+-|*Sparc                     COMMENT
-Unknown-                                                   MARKER NAME
????                                                        MARKER NUMBER
-Unknown- -Unknown-                                         OBSERVER / AGENCY
-Unknown- ASHTECH -Unknown-                                 REC # / TYPE / VERS
-Unknown- -Unknown-                                         ANT # / TYPE
 -3956280.0780  3353518.1705  3700198.2789                  APPROX POSITION XYZ
        0.0000        0.0000        0.0000                  ANTENNA: DELTA H/E/N
     1     0                                                WAVELENGTH FACT L1/2
     3    L1    C1    D1                                    # / TYPES OF OBSERV
6hour Test                                                  COMMENT
SNR is mapped to RINEX snr flag value [1-9]                 COMMENT
L1: 1 -> 1; 7 -> 5; 45 -> 9                                 COMMENT
L2: 1 -> 1; 150 -> 5; 250 -> 9                              COMMENT
  1998     4    14     6    58   25.0000000     GPS         TIME OF FIRST OBS
                                                            END OF HEADER
 98  4 14  6 58 25.0000000  0  4G15G14G 7G 2
   2728842.864 6  21341138.006       -2870.170
   1657209.736 7  20524503.193         162.876
   1176459.312 6  22064253.923        1875.796
   1894692.813 7  21157276.246        -421.195
 98  4 14  6 58 30.0000000  0  7G31G29G16G15G14G 7G 2
   2973887.890 5  23776575.177       -3422.635
   1921402.191 5  24620999.675        -351.042
    980785.076 7  21462111.372        2178.694
   2743196.811 6  21343869.843       -2871.282
   1656404.480 7  20524350.194         159.512
   1167082.234 6  22062470.897        1875.044
   1896809.126 7  21157678.298        -424.961
 98  4 14  6 58 35.0000000  0  7G31G29G16G15G14G 7G 2
   2991003.891 5  23779831.437       -3423.629
   1923166.098 5  24621335.466        -354.077
    969898.105 7  21460039.768        2176.331
   2757556.572 6  21346602.913       -2872.503
   1655616.471 8  20524201.012         156.110
   1157709.392 6  22060684.468        1874.194
   1898944.827 7  21158084.593        -428.824
 98  4 14  6 58 40.0000000  0  7G31G29G16G15G14G 7G 2
   3008125.344 5  23783089.499       -3424.895
   1924944.312 5  24621673.675        -356.937
    959023.066 7  21457970.498        2173.917
   2771922.045 6  21349337.711       -2873.628
   1654845.632 7  20524054.423         152.619
   1148340.837 6  22058901.909        1873.317
   1901099.671 7  21158495.521        -432.629
 98  4 14  6 58 45.0000000  0  7G31G29G16G15G14G 7G 2
   3025252.214 5  23786349.918       -3425.885
   1926736.759 5  24622016.363        -359.755
    948159.857 7  21455903.611        2171.550
   2786293.208 6  21352071.972       -2874.719
   1654091.970 7  20523910.243         149.144
   1138976.597 6  22057120.141        1872.473
   1903273.571 7  21158909.343        -436.500
 98  4 14  6 58 50.0000000  0  7G31G29G16G15G14G 7G 2
   3042384.701 5  23789611.445       -3426.927
   1928543.179 5  24622357.181        -362.468
    937308.781 7  21453838.584        2169.122
   2800670.131 6  21354806.975       -2875.952
   1653355.632 7  20523769.983         145.736
   1129616.826 6  22055338.163        1871.602
   1905466.389 7  21159325.484        -440.300
 98  4 14  6 58 55.0000000  0  7G31G29G16G15G14G 7G 2
   3059522.485 5  23792871.383       -3428.028
   1930363.462 5  24622703.821        -365.295
    926469.959 7  21451775.584        2166.591
   2815052.534 6  21357544.469       -2877.019
   1652636.471 7  20523632.845         142.262
   1120261.378 6  22053559.532        1870.678
   1907677.830 6  21159745.793        -444.017
 98  4 14  6 59  0.0000000  0  7G31G29G16G15G14G 7G 2
   3076665.598 5  23796134.686       -3429.131
   1932197.524 5  24623051.171        -368.006
    915643.665 7  21449715.255        2164.152
   2829440.559 6  21360281.598       -2878.182
   1651934.573 7  20523499.815         138.811
   1110910.301 6  22051779.279        1869.837
   1909907.871 6  21160170.399        -447.730
 98  4 14  6 59  5.0000000  0  7G31G29G16G15G14G 7G 2
   3093813.949 5  23799398.729       -3430.104
   1934045.628 5  24623405.452        -370.998
    904830.058 7  21447659.012        2161.600
   2843834.202 6  21363020.080       -2879.253
   1651250.166 7  20523369.410         135.367
   1101563.644 6  22050000.282        1868.982
   1912156.757 7  21160598.745        -451.438
 98  4 14  6 59 10.0000000  0  7G31G29G16G15G14G 7G 2
   3110967.573 5  23802662.727       -3431.287
   1935907.440 5  24623759.198        -373.673
    894028.973 7  21445602.710        2158.994
   2858233.381 6  21365761.149       -2880.496
   1650583.049 7  20523242.985         131.828
   1092221.169 6  22048224.536        1868.076
   1914424.143 7  21161030.363        -455.181
 98  4 14  6 59 15.0000000  0  7G31G29G16G15G14G 7G 2
   3128126.632 5  23805927.903       -3432.349
   1937783.886 4  24624113.004        -376.726
    883240.895 7  21443549.348        2156.433
   2872638.339 6  21368502.642       -2881.541
   1649933.507 7  20523118.954         128.336
   1082882.963 6  22046446.404        1867.187
   1916710.460 6  21161465.011        -458.984
 98  4 14  6 59 20.0000000  0  7G31G29G16G15G14G 7G 2
   3145291.325 5  23809194.012       -3433.534
   1939674.353 5  24624472.351        -379.392
    872465.702 7  21441498.563        2153.940
   2887048.923 6  21371243.840       -2882.575
   1649301.228 7  20522999.425         124.954
   1073548.779 6  22044671.338        1866.463
   1919015.514 6  21161903.391        -462.704
 98  4 14  6 59 25.0000000  0  7G31G29G16G15G14G 7G 2
   3162461.590 5  23812462.002       -3434.602
   1941579.210 4  24624834.149        -382.485
    861703.465 7  21439450.603        2151.243
   2901465.031 6  21373988.305       -2883.752
   1648686.194 7  20522882.000         121.481
   1064218.591 6  22042896.385        1865.667
   1921339.216 6  21162345.813        -466.412
 98  4 14  6 59 30.0000000  0  7G31G29G16G15G14G 7G 2
   3179637.624 5  23815730.837       -3435.822
   1943498.834 4  24625198.903        -385.333
    850954.273 7  21437405.261        2148.653
   2915886.859 6  21376732.417       -2884.959
   1648088.495 7  20522767.672         117.977
   1054892.564 6  22041120.963        1864.792
   1923681.870 7  21162791.989        -470.200
 98  4 14  6 59 35.0000000  0  8G31G29G16G15G14G 7G 4G 2
   3196819.600 6  23819000.153       -3436.845
   1945433.330 4  24625567.081        -388.286
    840218.425 7  21435362.577        2145.965
   2930314.372 6  21379476.686       -2886.006
   1647508.052 7  20522656.978         114.579
   1045570.827 6  22039345.435        1863.964
   1653222.678 5  24392430.033        1958.668
   1926043.353 7  21163241.944        -473.953
 98  4 14  6 59 40.0000000  0  8G31G29G16G15G14G 7G 4G 2
   3214007.303 5  23822270.937       -3438.097
   1947382.449 5  24625942.557        -391.050
    829495.485 7  21433322.027        2143.438
   2944747.334 6  21382223.263       -2887.055
   1646944.675 7  20522549.902         111.116
   1036253.244 6  22037573.211        1863.132
   1643426.887 4  24390562.200        1958.728
   1928423.555 7  21163694.930        -477.730
 98  4 14  6 59 45.0000000  0  8G31G29G16G15G14G 7G 4G 2
   3231201.418 5  23825542.556       -3439.371
   1949346.416 5  24626317.053        -394.239
    818785.835 7  21431284.079        2140.731
   2959186.224 6  21384971.867       -2888.349
   1646399.004 7  20522446.783         107.487
   1026940.089 6  22035800.929        1862.241
   1633636.812 4  24388699.262        1957.443
   1930822.907 7  21164151.377        -481.572
